When you browse on this site, cookies collect data to enhance your experience and personalize the content and advertising you see.
Visit our Privacy Policy to learn more. By continuing to use the site, you agree to this use of cookies and data.
  • In Hungary
  • List of Countries
  • For 7 days
  • Water Temperature
  • Satellite Maps
  • Weather Map
  • News
  • Weather Widgets
  • user-avatar
    Login

    Hourly Weather Legnica

    Today, 19 February, Tuesday

    Time Temperature Precipitation Wind Pressure Humidity
    00:00 +5°C° 0 mm 2 mps 753 mmHg 60%
    01:00 +5°C° 0 mm 2 mps 753 mmHg 61%
    02:00 +4°C° 0 mm 2 mps 753 mmHg 62%
    03:00 +4°C° 0 mm 2 mps 752 mmHg 62%
    04:00 +4°C° 0 mm 2 mps 752 mmHg 63%
    05:00 +4°C° 0 mm 2 mps 752 mmHg 64%
    06:00 +3°C° 0 mm 3 mps 752 mmHg 64%
    07:00 +2°C° 0 mm 3 mps 751 mmHg 65%
    08:00 +4°C° 0 mm 3 mps 751 mmHg 60%
    09:00 +6°C° 0 mm 4 mps 752 mmHg 56%
    10:00 +8°C° 0 mm 4 mps 752 mmHg 52%
    11:00 +9°C° 0 mm 5 mps 751 mmHg 52%
    12:00 +10°C° 0 mm 5 mps 751 mmHg 51%
    13:00 +11°C° 0 mm 6 mps 751 mmHg 51%
    14:00 +10°C° 0 mm 5 mps 751 mmHg 55%
    15:00 +10°C° 0 mm 5 mps 751 mmHg 59%
    16:00 +9°C° 0 mm 5 mps 751 mmHg 64%
    17:00 +10°C° 0 mm 4 mps 751 mmHg 69%
    18:00 +8°C° 0 mm 4 mps 751 mmHg 75%
    19:00 +7°C° 0 mm 4 mps 752 mmHg 81%
    20:00 +6°C° 0 mm 4 mps 752 mmHg 83%
    21:00 +6°C° 0 mm 4 mps 752 mmHg 85%
    22:00 +5°C° 0 mm 5 mps 752 mmHg 87%
    23:00 +5°C° 0 mm 5 mps 752 mmHg 84%

    Tomorrow, 20 February, Wednesday

    Time Temperature Precipitation Wind Pressure Humidity
    00:00 +3°C° 0 mm 5 mps 753 mmHg 82%
    01:00 +3°C° 0 mm 5 mps 753 mmHg 80%
    02:00 +3°C° 0 mm 5 mps 753 mmHg 81%
    03:00 +3°C° 0 mm 5 mps 753 mmHg 83%
    04:00 +2°C° 0 mm 5 mps 753 mmHg 84%
    05:00 +2°C° 0 mm 5 mps 753 mmHg 84%
    06:00 +3°C° 0 mm 5 mps 754 mmHg 84%
    07:00 +3°C° 0 mm 5 mps 754 mmHg 83%
    08:00 +3°C° 0 mm 6 mps 754 mmHg 80%
    09:00 +4°C° 0 mm 6 mps 755 mmHg 76%
    10:00 +5°C° 0 mm 6 mps 755 mmHg 73%
    11:00 +5°C° 0 mm 6 mps 755 mmHg 69%
    12:00 +7°C° 0 mm 6 mps 755 mmHg 65%
    13:00 +8°C° 0 mm 6 mps 755 mmHg 61%
    14:00 +8°C° 0 mm 5 mps 755 mmHg 63%
    15:00 +8°C° 0 mm 5 mps 755 mmHg 64%
    16:00 +7°C° 0 mm 4 mps 755 mmHg 66%
    17:00 +7°C° 0 mm 4 mps 756 mmHg 69%
    18:00 +7°C° 0 mm 3 mps 756 mmHg 72%
    19:00 +5°C° 0 mm 3 mps 756 mmHg 76%
    20:00 +5°C° 0 mm 3 mps 756 mmHg 75%
    21:00 +5°C° 0 mm 3 mps 757 mmHg 75%
    22:00 +4°C° 0 mm 4 mps 757 mmHg 75%
    23:00 +4°C° 0 mm 4 mps 757 mmHg 75%

    Day after tomorrow, 21 February, Thursday

    Time Temperature Precipitation Wind Pressure Humidity
    00:00 +4°C° 0 mm 4 mps 757 mmHg 75%
    01:00 +4°C° 0 mm 4 mps 757 mmHg 75%
    02:00 +4°C° 0.1 mm 4 mps 757 mmHg 77%
    03:00 +5°C° 0.1 mm 4 mps 757 mmHg 79%
    04:00 +5°C° 0.1 mm 4 mps 756 mmHg 80%
    05:00 +5°C° 0.2 mm 5 mps 756 mmHg 81%
    06:00 +5°C° 0.2 mm 5 mps 756 mmHg 82%
    07:00 +5°C° 0.2 mm 5 mps 756 mmHg 83%
    08:00 +5°C° 0.3 mm 6 mps 756 mmHg 82%
    09:00 +5°C° 0.3 mm 7 mps 756 mmHg 80%
    10:00 +5°C° 0.3 mm 7 mps 756 mmHg 79%
    11:00 +6°C° 0.5 mm 7 mps 756 mmHg 79%
    12:00 +6°C° 0.5 mm 7 mps 756 mmHg 78%
    13:00 +6°C° 0.5 mm 7 mps 756 mmHg 78%
    14:00 +6°C° 0.5 mm 7 mps 756 mmHg 80%
    15:00 +6°C° 0.5 mm 7 mps 756 mmHg 82%
    16:00 +6°C° 0.5 mm 7 mps 756 mmHg 84%
    17:00 +6°C° 0.2 mm 7 mps 757 mmHg 86%
    18:00 +7°C° 0.2 mm 6 mps 757 mmHg 88%
    19:00 +7°C° 0.2 mm 6 mps 758 mmHg 90%
    20:00 +7°C° 0.1 mm 6 mps 758 mmHg 90%
    21:00 +7°C° 0.1 mm 5 mps 758 mmHg 91%
    22:00 +7°C° 0.1 mm 5 mps 759 mmHg 91%
    23:00 +7°C° 0.2 mm 5 mps 759 mmHg 90%

    22 February, Friday

    Time Temperature Precipitation Wind Pressure Humidity
    00:00 +7°C° 0.2 mm 5 mps 760 mmHg 89%
    01:00 +7°C° 0.2 mm 5 mps 760 mmHg 88%
    02:00 +6°C° 0 mm 4 mps 761 mmHg 89%
    03:00 +5°C° 0 mm 4 mps 761 mmHg 91%
    04:00 +5°C° 0 mm 3 mps 761 mmHg 93%
    05:00 +4°C° 0 mm 3 mps 762 mmHg 92%
    06:00 +4°C° 0 mm 3 mps 763 mmHg 91%
    07:00 +4°C° 0 mm 3 mps 763 mmHg 89%
    08:00 +4°C° 0 mm 3 mps 764 mmHg 83%
    09:00 +3°C° 0 mm 3 mps 765 mmHg 77%
    10:00 +3°C° 0 mm 3 mps 766 mmHg 71%
    11:00 +4°C° 0 mm 3 mps 766 mmHg 64%
    12:00 +4°C° 0 mm 3 mps 767 mmHg 58%
    13:00 +5°C° 0 mm 3 mps 767 mmHg 52%
    14:00 +5°C° 0 mm 3 mps 767 mmHg 51%
    15:00 +4°C° 0 mm 3 mps 768 mmHg 51%
    16:00 +4°C° 0 mm 3 mps 768 mmHg 51%
    17:00 +3°C° 0 mm 3 mps 769 mmHg 55%
    18:00 +3°C° 0 mm 2 mps 769 mmHg 59%
    19:00 +2°C° 0 mm 2 mps 770 mmHg 63%
    20:00 +1°C° 0 mm 2 mps 770 mmHg 64%
    21:00 +1°C° 0 mm 2 mps 770 mmHg 66%
    22:00 -1°C° 0 mm 2 mps 771 mmHg 67%
    23:00 -1°C° 0 mm 2 mps 771 mmHg 67%

    23 February, Saturday

    Time Temperature Precipitation Wind Pressure Humidity
    00:00 -1°C° 0 mm 2 mps 771 mmHg 67%
    01:00 -1°C° 0 mm 2 mps 771 mmHg 66%
    02:00 -1°C° 0 mm 2 mps 771 mmHg 65%
    03:00 -1°C° 0 mm 2 mps 770 mmHg 63%
    04:00 +1°C° 0 mm 1 mps 770 mmHg 62%
    05:00 +1°C° 0 mm 1 mps 770 mmHg 60%
    06:00 +1°C° 0 mm 1 mps 770 mmHg 59%
    07:00 +1°C° 0 mm 1 mps 770 mmHg 58%
    08:00 +3°C° 0 mm 1 mps 770 mmHg 54%
    09:00 +4°C° 0 mm 1 mps 769 mmHg 51%
    10:00 +6°C° 0 mm 1 mps 769 mmHg 47%
    11:00 +6°C° 0 mm 2 mps 769 mmHg 47%
    12:00 +7°C° 0 mm 2 mps 769 mmHg 47%
    13:00 +9°C° 0 mm 3 mps 768 mmHg 47%
    14:00 +9°C° 0 mm 3 mps 768 mmHg 51%
    15:00 +8°C° 0 mm 3 mps 767 mmHg 55%
    16:00 +8°C° 0 mm 2 mps 767 mmHg 59%
    17:00 +7°C° 0 mm 2 mps 767 mmHg 64%
    18:00 +5°C° 0 mm 3 mps 767 mmHg 70%
    19:00 +4°C° 0 mm 3 mps 767 mmHg 76%
    20:00 +4°C° 0 mm 3 mps 767 mmHg 78%
    21:00 +3°C° 0 mm 3 mps 767 mmHg 81%
    22:00 +3°C° 0 mm 3 mps 767 mmHg 84%
    23:00 +3°C° 0 mm 3 mps 767 mmHg 86%

    24 February, Sunday

    Time Temperature Precipitation Wind Pressure Humidity
    00:00 +3°C° 0 mm 3 mps 767 mmHg 88%
    01:00 +3°C° 0 mm 3 mps 767 mmHg 90%
    02:00 +3°C° 0 mm 3 mps 766 mmHg 91%
    03:00 +3°C° 0 mm 3 mps 766 mmHg 92%
    04:00 +3°C° 0 mm 3 mps 766 mmHg 93%
    05:00 +3°C° 0 mm 3 mps 766 mmHg 93%
    06:00 +3°C° 0 mm 3 mps 766 mmHg 93%
    07:00 +2°C° 0 mm 3 mps 766 mmHg 93%
    08:00 +4°C° 0 mm 3 mps 766 mmHg 88%
    09:00 +7°C° 0 mm 3 mps 766 mmHg 82%
    10:00 +9°C° 0 mm 3 mps 766 mmHg 77%
    11:00 +10°C° 0 mm 3 mps 765 mmHg 71%
    12:00 +11°C° 0 mm 3 mps 765 mmHg 65%
    13:00 +13°C° 0 mm 4 mps 765 mmHg 59%
    14:00 +13°C° 0 mm 3 mps 764 mmHg 59%
    15:00 +13°C° 0 mm 3 mps 764 mmHg 59%
    16:00 +13°C° 0 mm 3 mps 763 mmHg 60%
    17:00 +12°C° 0 mm 3 mps 763 mmHg 65%
    18:00 +10°C° 0 mm 3 mps 762 mmHg 70%
    19:00 +9°C° 0 mm 3 mps 762 mmHg 76%
    20:00 +8°C° 0 mm 3 mps 762 mmHg 74%
    21:00 +8°C° 0 mm 3 mps 761 mmHg 73%
    22:00 +8°C° 0 mm 3 mps 761 mmHg 71%
    23:00 +7°C° 0 mm 4 mps 760 mmHg 71%
    Show more